[keps] orb07046.amsat
Ray Hoad
r.hoad at att.net
Thu Feb 15 18:30:33 PST 2007
SB KEPS @ AMSAT $ORB07046.O
Orbital Elements 07046.OSCAR
HR AMSAT ORBITAL ELEMENTS FOR OSCAR SATELLITES
FROM WA5QGD FORT WORTH,TX February 15, 2007
Send SUBSCRIBE KEPS/UNSUBSCRIBE KEPS to majordomo at amsat.org only
BID: ORB07046.O
TO ALL RADIO AMATEURS BT
Satellite: AO-07
Catalog number: 07530
Epoch time: 07045.63861570
Element set: 0807
Inclination: 101.5348 deg
RA of node: 087.1773 deg
Eccentricity: 0.0012111
Arg of perigee: 134.3426 deg
Mean anomaly: 225.8638 deg
Mean motion: 12.53572478 rev/day
Decay rate: -2.8e-07 rev/day^2
Epoch rev: 47576
Checksum: 302
Satellite: AO-10
Catalog number: 14129
Epoch time: 07045.17252119
Element set: 0361
Inclination: 026.9212 deg
RA of node: 291.6014 deg
Eccentricity: 0.6052801
Arg of perigee: 357.9735 deg
Mean anomaly: 000.5274 deg
Mean motion: 02.05868902 rev/day
Decay rate: 1.3e-07 rev/day^2
Epoch rev: 17803
Checksum: 270
Satellite: UO-11
Catalog number: 14781
Epoch time: 07045.57856784
Element set: 0302
Inclination: 098.2001 deg
RA of node: 065.8537 deg
Eccentricity: 0.0008640
Arg of perigee: 200.9185 deg
Mean anomaly: 159.1641 deg
Mean motion: 14.79522227 rev/day
Decay rate: 1.93e-06 rev/day^2
Epoch rev: 23160
Checksum: 294
Satellite: RS-10/11
Catalog number: 18129
Epoch time: 07045.82196860
Element set: 0229
Inclination: 082.9281 deg
RA of node: 148.6986 deg
Eccentricity: 0.0012474
Arg of perigee: 132.5249 deg
Mean anomaly: 227.6961 deg
Mean motion: 13.72784292 rev/day
Decay rate: 3.7e-07 rev/day^2
Epoch rev: 98444
Checksum: 337
Satellite: RS-15
Catalog number: 23439
Epoch time: 07045.85412822
Element set: 0015
Inclination: 064.8143 deg
RA of node: 204.7569 deg
Eccentricity: 0.0162758
Arg of perigee: 212.2151 deg
Mean anomaly: 146.8749 deg
Mean motion: 11.27551838 rev/day
Decay rate: -3.9e-07 rev/day^2
Epoch rev: 49990
Checksum: 318
Satellite: FO-29
Catalog number: 24278
Epoch time: 07045.95990158
Element set: 0443
Inclination: 098.5336 deg
RA of node: 022.1092 deg
Eccentricity: 0.0351247
Arg of perigee: 040.1721 deg
Mean anomaly: 322.4822 deg
Mean motion: 13.52927838 rev/day
Decay rate: 1.0e-07 rev/day^2
Epoch rev: 51837
Checksum: 301
Satellite: SO-33
Catalog number: 25509
Epoch time: 07045.72854272
Element set: 864
Inclination: 031.4273 deg
RA of node: 198.0974 deg
Eccentricity: 0.0354661
Arg of perigee: 076.8188 deg
Mean anomaly: 287.1768 deg
Mean motion: 14.28146571 rev/day
Decay rate: 5.5e-07 rev/day^2
Epoch rev: 43373
Checksum: 338
Satellite: AO-40
Catalog number: 26609
Epoch time: 07046.52374286
Element set: 840
Inclination: 004.8306 deg
RA of node: 174.4525 deg
Eccentricity: 0.7997343
Arg of perigee: 274.2209 deg
Mean anomaly: 008.5819 deg
Mean motion: 01.25586301 rev/day
Decay rate: 6.6e-07 rev/day^2
Epoch rev: 2891
Checksum: 315
Satellite: VO-52
Catalog number: 28650
Epoch time: 07045.70900109
Element set: 0556
Inclination: 097.8446 deg
RA of node: 119.1059 deg
Eccentricity: 0.0026194
Arg of perigee: 293.4468 deg
Mean anomaly: 066.3997 deg
Mean motion: 14.81266245 rev/day
Decay rate: 4.05e-06 rev/day^2
Epoch rev: 09628
Checksum: 331
Satellite: PO-63
Catalog number: 29712
Epoch time: 07046.72234358
Element set: 107
Inclination: 097.9377 deg
RA of node: 107.4992 deg
Eccentricity: 0.0014998
Arg of perigee: 158.8994 deg
Mean anomaly: 201.2839 deg
Mean motion: 14.79553613 rev/day
Decay rate: 8.35e-06 rev/day^2
Epoch rev: 537
Checksum: 348
/EX
SB KEPS @ AMSAT $ORB07046.D
Orbital Elements 07046.MICROS
HR AMSAT ORBITAL ELEMENTS FOR THE MICROSATS
FROM WA5QGD FORT WORTH,TX February 15, 2007
Send SUBSCRIBE KEPS/UNSUBSCRIBE KEPS to majordomo at amsat.org only
BID: ORB07046.D
TO ALL RADIO AMATEURS BT
Satellite: AO-16
Catalog number: 20439
Epoch time: 07045.72253577
Element set: 0967
Inclination: 098.1926 deg
RA of node: 047.0546 deg
Eccentricity: 0.0010647
Arg of perigee: 187.4095 deg
Mean anomaly: 172.6931 deg
Mean motion: 14.31750252 rev/day
Decay rate: 1.7e-07 rev/day^2
Epoch rev: 89102
Checksum: 312
Satellite: LO-19
Catalog number: 20442
Epoch time: 07045.57193595
Element set: 894
Inclination: 098.1824 deg
RA of node: 056.3944 deg
Eccentricity: 0.0011571
Arg of perigee: 187.4341 deg
Mean anomaly: 172.6677 deg
Mean motion: 14.31991016 rev/day
Decay rate: -7.4e-07 rev/day^2
Epoch rev: 89114
Checksum: 326
Satellite: AO-27
Catalog number: 22825
Epoch time: 07045.89202191
Element set: 617
Inclination: 098.3158 deg
RA of node: 021.2011 deg
Eccentricity: 0.0007561
Arg of perigee: 262.6123 deg
Mean anomaly: 097.4233 deg
Mean motion: 14.29199529 rev/day
Decay rate: 6.5e-07 rev/day^2
Epoch rev: 69802
Checksum: 298
Satellite: IO-26
Catalog number: 22826
Epoch time: 07045.68036376
Element set: 0313
Inclination: 098.3091 deg
RA of node: 022.1206 deg
Eccentricity: 0.0008048
Arg of perigee: 261.5816 deg
Mean anomaly: 098.4444 deg
Mean motion: 14.29444856 rev/day
Decay rate: 1.5e-07 rev/day^2
Epoch rev: 69807
Checksum: 309
Satellite: PO-28
Catalog number: 22829
Epoch time: 07045.90609683
Element set: 0593
Inclination: 098.2987 deg
RA of node: 023.5192 deg
Eccentricity: 0.0008993
Arg of perigee: 231.9146 deg
Mean anomaly: 128.1231 deg
Mean motion: 14.30143056 rev/day
Decay rate: -7.0e-08 rev/day^2
Epoch rev: 69833
Checksum: 321
Satellite: GO-32
Catalog number: 25397
Epoch time: 07045.68355606
Element set: 0232
Inclination: 098.4345 deg
RA of node: 098.1561 deg
Eccentricity: 0.0000894
Arg of perigee: 182.6453 deg
Mean anomaly: 177.4730 deg
Mean motion: 14.23120114 rev/day
Decay rate: 1.2e-07 rev/day^2
Epoch rev: 44673
Checksum: 292
Satellite: MO-46
Catalog number: 26548
Epoch time: 07046.47495095
Element set: 723
Inclination: 064.5559 deg
RA of node: 199.1894 deg
Eccentricity: 0.0029294
Arg of perigee: 213.4503 deg
Mean anomaly: 146.4769 deg
Mean motion: 14.83098943 rev/day
Decay rate: 8.2e-07 rev/day^2
Epoch rev: 34548
Checksum: 357
Satellite: NO-44
Catalog number: 26931
Epoch time: 07046.62677641
Element set: 522
Inclination: 067.0522 deg
RA of node: 100.6226 deg
Eccentricity: 0.0005881
Arg of perigee: 276.1059 deg
Mean anomaly: 083.9358 deg
Mean motion: 14.29472357 rev/day
Decay rate: -1.60e-06 rev/day^2
Epoch rev: 28072
Checksum: 302
Satellite: SO-50
Catalog number: 27607
Epoch time: 07046.51942401
Element set: 243
Inclination: 064.5586 deg
RA of node: 094.4212 deg
Eccentricity: 0.0040255
Arg of perigee: 040.2496 deg
Mean anomaly: 320.1566 deg
Mean motion: 14.71227879 rev/day
Decay rate: 3.7e-07 rev/day^2
Epoch rev: 22322
Checksum: 279
Satellite: CO-55
Catalog number: 27844
Epoch time: 07046.67060504
Element set: 962
Inclination: 098.7217 deg
RA of node: 056.6223 deg
Eccentricity: 0.0010742
Arg of perigee: 082.5584 deg
Mean anomaly: 277.6807 deg
Mean motion: 14.20491753 rev/day
Decay rate: 5.3e-07 rev/day^2
Epoch rev: 18822
Checksum: 314
Satellite: CO-57
Catalog number: 27848
Epoch time: 07045.54864190
Element set: 923
Inclination: 098.7205 deg
RA of node: 054.7564 deg
Eccentricity: 0.0010611
Arg of perigee: 087.9206 deg
Mean anomaly: 272.3198 deg
Mean motion: 14.20313532 rev/day
Decay rate: 5.1e-07 rev/day^2
Epoch rev: 18804
Checksum: 305
Satellite: AO-51
Catalog number: 28375
Epoch time: 07045.62772381
Element set: 0749
Inclination: 098.1315 deg
RA of node: 091.1609 deg
Eccentricity: 0.0083255
Arg of perigee: 193.4556 deg
Mean anomaly: 166.4414 deg
Mean motion: 14.40555147 rev/day
Decay rate: 1.4e-07 rev/day^2
Epoch rev: 13807
Checksum: 309
Satellite: CO-56
Catalog number: 28941
Epoch time: 07045.63323873
Element set: 352
Inclination: 098.1501 deg
RA of node: 093.4622 deg
Eccentricity: 0.0243617
Arg of perigee: 345.8023 deg
Mean anomaly: 013.6507 deg
Mean motion: 15.34745715 rev/day
Decay rate: 2.2865e-04 rev/day^2
Epoch rev: 5460
Checksum: 304
Satellite: HO-59
Catalog number: 29484
Epoch time: 07045.68707433
Element set: 0195
Inclination: 098.3067 deg
RA of node: 077.6671 deg
Eccentricity: 0.0240946
Arg of perigee: 342.5941 deg
Mean anomaly: 016.7172 deg
Mean motion: 15.41780786 rev/day
Decay rate: 4.3254e-04 rev/day^2
Epoch rev: 02214
Checksum: 336
Satellite: NO-60
Catalog number: 29661
Epoch time: 07045.94238938
Element set: 0074
Inclination: 051.6445 deg
RA of node: 012.3384 deg
Eccentricity: 0.0010342
Arg of perigee: 217.1987 deg
Mean anomaly: 142.8306 deg
Mean motion: 15.88144611 rev/day
Decay rate: 6.1102e-04 rev/day^2
Epoch rev: 00887
Checksum: 298
Satellite: NO-61
Catalog number: 29667
Epoch time: 07045.96051082
Element set: 0057
Inclination: 051.6365 deg
RA of node: 013.1772 deg
Eccentricity: 0.0014929
Arg of perigee: 224.4535 deg
Mean anomaly: 135.5273 deg
Mean motion: 15.83755415 rev/day
Decay rate: 1.5912e-04 rev/day^2
Epoch rev: 00860
Checksum: 303
/EX
SB KEPS @ AMSAT $ORB07046.W
Orbital Elements 07046.WEATHER
HR AMSAT ORBITAL ELEMENTS FOR WEATHER SATELLITES
FROM WA5QGD FORT WORTH,TX February 15, 2007
Send SUBSCRIBE KEPS/UNSUBSCRIBE KEPS to majordomo at amsat.org only
BID: ORB07046.W
TO ALL RADIO AMATEURS BT
Satellite: NOAA-10
Catalog number: 16969
Epoch time: 07045.55628502
Element set: 0547
Inclination: 098.7542 deg
RA of node: 062.6193 deg
Eccentricity: 0.0012548
Arg of perigee: 161.6180 deg
Mean anomaly: 198.5447 deg
Mean motion: 14.27317361 rev/day
Decay rate: 1.6e-07 rev/day^2
Epoch rev: 06173
Checksum: 310
Satellite: NOAA-11
Catalog number: 19531
Epoch time: 07045.78797797
Element set: 0533
Inclination: 098.8147 deg
RA of node: 136.4761 deg
Eccentricity: 0.0012012
Arg of perigee: 022.7817 deg
Mean anomaly: 337.3859 deg
Mean motion: 14.14835751 rev/day
Decay rate: 1.90e-06 rev/day^2
Epoch rev: 94884
Checksum: 337
Satellite: NOAA-12
Catalog number: 21263
Epoch time: 07045.89314626
Element set: 0027
Inclination: 098.7491 deg
RA of node: 043.3639 deg
Eccentricity: 0.0013619
Arg of perigee: 102.3108 deg
Mean anomaly: 257.9623 deg
Mean motion: 14.25521670 rev/day
Decay rate: -4.9e-07 rev/day^2
Epoch rev: 81882
Checksum: 301
